Location: �quirre
(50.4736°N, 2.2351°E)
Time: 05:50:27
(UTC+00:00)

SL-16 R/B - Pass Details

Date: 07 August 2020
Orbit: 985 x 1007 km, 99.5° (Epoch: 26 September)

Event Time Altitude Azimuth Distance (km) Brightness Sun altitude
Exits shadow 00:28:36 17° 127° (SE) 2,300 4.2 -22.8°
Maximum altitude 00:33:05 44° 63° (ENE) 1,359 3.5 -22.7°
Drops below altitude 10° 00:38:59 10° 353° (N) 2,791 5.9 -22.6°
Sets 00:41:34 0° 348° (NNW) 3,743 6.7 -22.5°
